This is the latest recevied weather packets stored in our database for station/object VE2XOX. If no packets are shown the sender has not sent any weather packets the latest 10 day(s).
| Time | Temp. | Humidity | Pressure | Rain* | Wind** | Luminosity | Snow |
|---|---|---|---|---|---|---|---|
| 1777819537 | 9.44° C | 45% | 1006.9 hPa | 0 mm | - | - | - |
| 1777819222 | 8.89° C | 43% | 1007 hPa | 0 mm | - | - | - |
| 1777818927 | 8.89° C | 44% | 1007 hPa | 0 mm | - | - | - |
| 1777818613 | 8.89° C | 45% | 1007.1 hPa | 0 mm | - | - | - |
| 1777818326 | 8.89° C | 45% | 1007.1 hPa | 0 mm | - | - | - |
| 1777818031 | 8.89° C | 45% | 1007.3 hPa | 0 mm | - | - | - |
| 1777817714 | 8.89° C | 45% | 1007.3 hPa | 0 mm | - | - | - |
| 1777817425 | 8.89° C | 46% | 1007.4 hPa | 0 mm | - | - | - |
| 1777817112 | 8.89° C | 49% | 1007.5 hPa | 0 mm | - | - | - |
| 1777816816 | 8.33° C | 49% | 1007.4 hPa | 0 mm | - | - | - |
| 1777816527 | 8.33° C | 49% | 1007.6 hPa | 0 mm | - | - | - |
| 1777816214 | 8.33° C | 47% | 1007.6 hPa | 0 mm | - | - | - |
| 1777815918 | 8.33° C | 48% | 1007.7 hPa | 0 mm | - | - | - |
| 1777815626 | 8.33° C | 51% | 1007.7 hPa | 0 mm | - | - | - |
| 1777815331 | 8.33° C | 53% | 1007.8 hPa | 0 mm | - | - | - |
| 1777815016 | 8.33° C | 53% | 1007.8 hPa | 0 mm | - | - | - |
| 1777814727 | 8.33° C | 53% | 1007.9 hPa | 0 mm | - | - | - |
| 1777814412 | 7.78° C | 56% | 1008 hPa | 0 mm | - | - | - |
| 1777814118 | 7.78° C | 54% | 1008 hPa | 0 mm | - | - | - |
| 1777813830 | 7.78° C | 55% | 1008 hPa | 0 mm | - | - | - |
| 1777813513 | 7.78° C | 57% | 1008.1 hPa | 0 mm | - | - | - |
| 1777813217 | 7.78° C | 58% | 1008.1 hPa | 0 mm | - | - | - |
| 1777812928 | 7.22° C | 59% | 1008.2 hPa | 0 mm | - | - | - |
| 1777812612 | 7.22° C | 58% | 1008.2 hPa | 0 mm | - | - | - |
| 1777812317 | 7.22° C | 58% | 1008.2 hPa | 0 mm | - | - | - |
* Rain latest hour (hover to see other rain measurements)
** Current wind speed in m/s (hover to see current wind gust speed)